Accueil
METAR-TAF:

METAR-TAF

Aéroports :

Aéroport de Saint-Brieuc Armor

Saint-Brieuc, France

latitude: 48-32N, longitude: 002-51W, altitude: 138 m

Observation

Le bulletin a été fait il y a 29 minutes, à 19:00 UTC
Vent 2 kt de direction variable
Température 16°C
Humidité 88%
Pression 1023 hPa
Visibilité 10 km ou plus
Ciel couvert à une hauteur de 2600 ft

METAR: LFRT 241900Z AUTO VRB02KT 9999 OVC026 16/14 Q1023

Heure: 21:29 (19:29 UTC)


TAF: absent

Observations et prévisions météorologiques de plus de 4000 aéroports (messages METAR et TAF).

Les stations disponibles sont représentées par des disques jaunes et rouges sur la carte.

Passer la souris dessus pour voir le nom de la station.

Cliquer dessus pour voir les observations et prévisions météorologiques.

Pour changer de carte: cliquez sur les boutons verts avec une croix noire pour zoomer, sur le bouton vert avec un tiret pour effectuer un zoom arrière, ou sur les flèches vertes pour les cartes adjacentes.


METAR-TAF: